Altus, OK

4:13 PM CST on February 10, 2016 (GMT -0600)
Altus Air Force Base

Weather History for KLTS - November, 2011

Change the Weather History Date:

Tuesday, November 22, 2011

  Actual Average Record
Temperature  
Mean Temperature 48 °F -  
Max Temperature 58 °F 56 °F 81 °F (2012)
Min Temperature 39 °F 34 °F 21 °F (2007)
Degree Days  
Heating Degree Days 16    
Moisture  
Dew Point 44 °F    
Average Humidity 93    
Maximum Humidity 100    
Minimum Humidity 67    
Precipitation  
Precipitation 0.00 in - - ()
Sea Level Pressure  
Sea Level Pressure 30.11 in    
Wind  
Wind Speed 9 mph (NNW)    
Max Wind Speed 18 mph    
Max Gust Speed -    
Visibility 9 miles    
Events Fog , Rain    
Averages and records for this station are not official NWS values.
T = Trace of Precipitation, MM = Missing Value Source: NWS Daily Summary

Daily Weather History Graph

Daily Weather History Graph

Search for Another Location

Airport or City:

Trip Planner

Search our weather history database for the weather conditions in past years. The results will help you decide how hot, cold, wet, or windy it might be!

Date:

Astronomy

Nov. 22, 2011 Rise Set
Actual Time 7:17 AM CST 5:28 PM CST
Civil Twilight 6:50 AM CST 5:55 PM CST
Nautical Twilight 6:19 AM CST 6:26 PM CST
Astronomical Twilight 5:49 AM CST 6:56 PM CST
Moon 4:14 AM CST (11/22) 3:25 PM CST (11/22)
Length of Visible Light 11h 05m
Length of Day
10h 11m
Waning Crescent, 9% of the Moon is Illuminated
Nov 22
Waning Crescent
Nov 25
New
Dec 2
First Quarter
Dec 10
Full
Dec 17
Last Quarter

Hourly Weather History & Observations

Time (CST) Temp. Windchill Dew Point Humidity Pressure Visibility Wind Dir Wind Speed Gust Speed Precip Events Conditions
12:55 AM 41.7 °F 38.8 °F 41.4 °F 99% 30.00 in 10.0 mi West 4.6 mph - N/A   Overcast
1:31 AM 42.8 °F 35.4 °F 41.0 °F 93% 30.02 in 10.0 mi North 15.0 mph - N/A   Overcast
1:55 AM 41.7 °F 35.6 °F 41.5 °F 99% 30.03 in 10.0 mi North 10.4 mph - N/A   Overcast
1:58 AM 42.8 °F 37.0 °F 41.0 °F 93% 30.03 in 10.0 mi North 10.4 mph - N/A   Overcast
2:02 AM 42.8 °F 37.0 °F 41.0 °F 93% 30.03 in 10.0 mi North 10.4 mph - N/A   Overcast
2:18 AM 41.0 °F 32.8 °F 41.0 °F 100% 30.03 in 10.0 mi NNE 16.1 mph - N/A   Overcast
2:26 AM 41.0 °F 33.1 °F 41.0 °F 100% 30.04 in 9.0 mi NNE 15.0 mph - N/A   Overcast
2:38 AM 41.0 °F 34.3 °F 41.0 °F 100% 30.04 in 10.0 mi NNE 11.5 mph - N/A   Overcast
2:41 AM 41.0 °F 33.9 °F 41.0 °F 100% 30.04 in 10.0 mi NNE 12.7 mph - N/A   Overcast
2:48 AM 41.0 °F 32.5 °F 41.0 °F 100% 30.03 in 10.0 mi NNE 17.3 mph - N/A   Overcast
2:55 AM 41.2 °F 33.7 °F 41.0 °F 99% 30.03 in 10.0 mi NNE 13.8 mph - 0.00 in Rain Light Rain
3:00 AM 41.0 °F 32.8 °F 41.0 °F 100% 30.03 in 10.0 mi NNE 16.1 mph - N/A Rain Light Rain
3:04 AM 41.0 °F 33.1 °F 41.0 °F 100% 30.03 in 10.0 mi NNE 15.0 mph - N/A   Overcast
3:19 AM 41.0 °F 33.1 °F 41.0 °F 100% 30.03 in 10.0 mi NNE 15.0 mph - N/A   Overcast
3:25 AM 41.0 °F 32.2 °F 41.0 °F 100% 30.03 in 10.0 mi NNE 18.4 mph - N/A   Overcast
3:42 AM 41.0 °F 34.7 °F 41.0 °F 100% 30.04 in 10.0 mi NNE 10.4 mph - N/A   Overcast
3:55 AM 41.0 °F 35.2 °F 40.8 °F 99% 30.04 in 10.0 mi NNE 9.2 mph - 0.00 in Rain Light Rain
3:59 AM 41.0 °F 35.2 °F 41.0 °F 100% 30.04 in 10.0 mi North 9.2 mph - N/A   Light Drizzle
4:00 AM 41.0 °F 35.8 °F 41.0 °F 100% 30.04 in 10.0 mi North 8.1 mph - N/A   Overcast
4:17 AM 41.0 °F 34.7 °F 41.0 °F 100% 30.05 in 10.0 mi North 10.4 mph - N/A   Overcast
4:20 AM 41.0 °F 34.7 °F 41.0 °F 100% 30.04 in 10.0 mi North 10.4 mph - N/A   Overcast
4:42 AM 41.0 °F 35.2 °F 41.0 °F 100% 30.04 in 10.0 mi North 9.2 mph - N/A   Overcast
4:55 AM 40.8 °F 35.6 °F 40.6 °F 99% 30.04 in 10.0 mi North 8.1 mph - 0.00 in   Overcast
5:24 AM 41.0 °F 35.2 °F 41.0 °F 100% 30.05 in 10.0 mi North 9.2 mph - N/A   Overcast
5:33 AM 41.0 °F 35.8 °F 41.0 °F 100% 30.05 in 10.0 mi North 8.1 mph - N/A   Overcast
5:37 AM 41.0 °F 35.8 °F 41.0 °F 100% 30.05 in 10.0 mi North 8.1 mph - N/A   Overcast
5:41 AM 41.0 °F 35.2 °F 41.0 °F 100% 30.05 in 10.0 mi North 9.2 mph - N/A   Overcast
5:55 AM 41.5 °F 36.4 °F 41.4 °F 99% 30.06 in 10.0 mi North 8.1 mph - N/A   Overcast
6:55 AM 42.6 °F 37.2 °F 42.3 °F 99% 30.07 in 10.0 mi NNW 9.2 mph - N/A   Overcast
7:30 AM 42.8 °F 40.1 °F 42.8 °F 100% 30.09 in 10.0 mi WNW 4.6 mph - N/A   Overcast
7:55 AM 43.2 °F 39.0 °F 42.6 °F 98% 30.09 in 10.0 mi NNW 6.9 mph - N/A   Overcast
8:55 AM 44.2 °F 38.0 °F 43.0 °F 95% 30.13 in 10.0 mi NW 12.7 mph - N/A   Overcast
9:55 AM 46.4 °F 41.5 °F 44.6 °F 93% 30.14 in 10.0 mi NW 10.4 mph - N/A   Mostly Cloudy
10:05 AM 46.4 °F 42.9 °F 42.8 °F 87% 30.14 in 10.0 mi North 6.9 mph - N/A   Overcast
10:09 AM 46.4 °F 42.4 °F 44.6 °F 93% 30.15 in 10.0 mi NNW 8.1 mph - N/A   Overcast
10:55 AM 48.4 °F - 45.3 °F 89% 30.15 in 10.0 mi NW 6.9 mph - N/A   Overcast
10:58 AM 48.2 °F - 44.6 °F 87% 30.15 in 10.0 mi NNW 6.9 mph - N/A   Overcast
11:08 AM 48.2 °F - 46.4 °F 93% 30.15 in 10.0 mi NNW 9.2 mph - N/A   Mostly Cloudy
11:15 AM 50.0 °F - 46.4 °F 87% 30.15 in 10.0 mi NNW 8.1 mph - N/A   Scattered Clouds
11:55 AM 51.6 °F - 47.1 °F 85% 30.14 in 10.0 mi WNW 8.1 mph - N/A   Scattered Clouds
11:57 AM 51.8 °F - 46.4 °F 82% 30.14 in 10.0 mi WNW 9.2 mph - N/A   Mostly Cloudy
12:29 PM 53.6 °F - 48.2 °F 82% 30.12 in 10.0 mi West 8.1 mph - N/A   Overcast
12:55 PM 53.8 °F - 48.4 °F 82% 30.12 in 10.0 mi West 6.9 mph - N/A   Overcast
1:06 PM 53.6 °F - 48.2 °F 82% 30.11 in 10.0 mi West 9.2 mph - N/A   Overcast
1:29 PM 55.4 °F - 48.2 °F 77% 30.11 in 10.0 mi West 9.2 mph - N/A   Overcast
1:39 PM 55.4 °F - 48.2 °F 77% 30.11 in 10.0 mi West 10.4 mph - N/A   Overcast
1:55 PM 55.9 °F - 49.5 °F 79% 30.10 in 10.0 mi WNW 9.2 mph - N/A   Overcast
2:05 PM 55.4 °F - 48.2 °F 77% 30.11 in 10.0 mi WNW 8.1 mph - N/A   Overcast
2:12 PM 57.2 °F - 48.2 °F 72% 30.10 in 10.0 mi NW 8.1 mph - N/A   Overcast
2:14 PM 57.2 °F - 48.2 °F 72% 30.11 in 10.0 mi NW 8.1 mph - N/A   Overcast
2:29 PM 57.2 °F - 48.2 °F 72% 30.10 in 10.0 mi NW 9.2 mph - N/A   Scattered Clouds
2:55 PM 57.7 °F - 48.0 °F 70% 30.10 in 10.0 mi WNW 6.9 mph - N/A   Clear
3:55 PM 58.5 °F - 47.7 °F 67% 30.11 in 10.0 mi West 4.6 mph - N/A   Clear
4:55 PM 57.7 °F - 48.4 °F 71% 30.13 in 10.0 mi SW 5.8 mph - N/A   Clear
5:55 PM 52.0 °F - 48.9 °F 89% 30.15 in 10.0 mi Calm Calm - N/A   Clear
6:55 PM 48.0 °F - 47.8 °F 99% 30.17 in 10.0 mi Calm Calm - N/A   Clear
7:55 PM 44.4 °F 42.9 °F 44.2 °F 99% 30.18 in 10.0 mi ENE 3.5 mph - N/A   Clear
8:55 PM 45.1 °F - 45.0 °F 99% 30.21 in 10.0 mi Calm Calm - N/A   Clear
8:57 PM 42.8 °F - 42.8 °F 100% 30.21 in 0.8 mi Calm Calm - N/A   Clear
9:00 PM 42.8 °F - 42.8 °F 100% 30.21 in 0.5 mi Calm Calm - N/A Fog Fog
9:02 PM 42.8 °F - 42.8 °F 100% 30.21 in 0.5 mi Calm Calm - N/A Fog Fog
9:05 PM 42.8 °F - 42.8 °F 100% 30.21 in 3.0 mi Calm Calm - N/A   Clear
9:46 PM 44.6 °F - 44.6 °F 100% 30.22 in 4.0 mi Calm Calm - N/A   Clear
9:55 PM 45.3 °F - 45.3 °F 100% 30.22 in 7.0 mi Calm Calm - N/A   Clear
10:13 PM 41.0 °F - 41.0 °F 100% 30.23 in 4.0 mi Calm Calm - N/A   Clear
10:55 PM 42.8 °F - 42.8 °F 100% 30.37 in 4.0 mi Calm Calm - N/A   Clear
11:25 PM 39.2 °F 37.0 °F 39.2 °F 100% 30.24 in 2.0 mi South 3.5 mph - N/A   Clear
11:55 PM 40.1 °F - 39.9 °F 99% 30.24 in 1.0 mi Calm Calm - N/A   Clear
11:56 PM 39.2 °F 37.0 °F 39.2 °F 100% 30.25 in 0.8 mi NNW 3.5 mph - N/A   Clear